San Diego, CA

2:53 AM PDT on June 24, 2018 (GMT -0700)
San Diego International-Lindbergh

Weather History for KSAN - October, 2017

Change the Weather History Date:

Sunday, October 8, 2017

  Actual Average Record
Temperature  
Mean Temperature 68 °F 68 °F  
Max Temperature 71 °F 73 °F 94 °F (2008)
Min Temperature 65 °F 62 °F 49 °F (1883)
Degree Days  
Heating Degree Days 0 0  
Month to date heating degree days 0 0  
Since 1 July heating degree days 0 2  
Cooling Degree Days 3 3  
Month to date cooling degree days 42 27  
Year to date cooling degree days 986 663  
Growing Degree Days 18 (Base 50)    
Moisture  
Dew Point 60 °F    
Average Humidity 81    
Maximum Humidity 93    
Minimum Humidity 68    
Precipitation  
Precipitation 0.00 in 0.01 in 0.62 in (1857)
Month to date precipitation 0.00 0.10  
Year to date precipitation 7.83 7.33  
Sea Level Pressure  
Sea Level Pressure 29.78 in    
Wind  
Wind Speed 11 mph (South)    
Max Wind Speed 17 mph    
Max Gust Speed 22 mph    
Visibility 10 miles    
Events      
T = Trace of Precipitation, MM = Missing Value Source: NWS Daily Summary

Daily Weather History Graph

Daily Weather History Graph

Search for Another Location

Airport or City:

Astronomy

Oct. 08, 2017 Rise Set
Actual Time 6:47 AM PDT 6:23 PM PDT
Civil Twilight 6:23 AM PDT 6:48 PM PDT
Nautical Twilight 5:54 AM PDT 7:17 PM PDT
Astronomical Twilight 5:26 AM PDT 7:45 PM PDT
Moon 8:57 PM PDT (10/8) 9:48 AM PDT (10/8)
Length of Visible Light 12h 25m
Length of Day
11h 35m
Waning Gibbous, 88% of the Moon is Illuminated
Oct 8
Waning Gibbous
Oct 12
Last Quarter
Oct 19
New
Oct 27
First Quarter
Nov 3
Full

Hourly Weather History & Observations

Time (PDT) Temp. Dew Point Humidity Pressure Visibility Wind Dir Wind Speed Gust Speed Precip Events Conditions
12:51 AM 66.9 °F 64.9 °F 93% 29.78 in 10.0 mi South 4.6 mph - N/A   Overcast
1:00 AM 66.9 °F 64.9 °F 93% 29.77 in 10.0 mi SSE 5.8 mph - N/A   Overcast
1:35 AM 66.9 °F 63.0 °F 87% 29.77 in 10.0 mi SSE 5.8 mph - N/A   Overcast
1:51 AM 66.9 °F 63.0 °F 87% 29.77 in 10.0 mi South 4.6 mph - N/A   Overcast
2:51 AM 66.9 °F 62.1 °F 84% 29.76 in 10.0 mi SSE 9.2 mph - N/A   Overcast
3:51 AM 66.0 °F 62.1 °F 87% 29.76 in 9.0 mi South 6.9 mph - N/A   Overcast
4:51 AM 66.0 °F 61.0 °F 84% 29.76 in 9.0 mi SSE 6.9 mph - N/A   Overcast
5:39 AM 66.0 °F 61.0 °F 84% 29.76 in 8.0 mi SSE 8.1 mph - N/A   Overcast
5:51 AM 66.0 °F 61.0 °F 84% 29.77 in 8.0 mi SSE 8.1 mph - N/A   Overcast
6:51 AM 66.0 °F 61.0 °F 84% 29.77 in 9.0 mi SSE 6.9 mph - N/A   Mostly Cloudy
7:51 AM 64.9 °F 61.0 °F 87% 29.79 in 7.0 mi SSE 8.1 mph - N/A   Mostly Cloudy
8:29 AM 66.0 °F 60.1 °F 81% 29.79 in 8.0 mi SSE 8.1 mph - N/A   Mostly Cloudy
8:51 AM 66.0 °F 60.1 °F 81% 29.80 in 9.0 mi SE 11.5 mph - N/A   Mostly Cloudy
9:51 AM 68.0 °F 60.1 °F 76% 29.81 in 10.0 mi South 13.8 mph - N/A   Mostly Cloudy
10:44 AM 68.0 °F 60.1 °F 76% 29.81 in 10.0 mi SSW 15.0 mph - N/A   Scattered Clouds
10:51 AM 69.1 °F 60.1 °F 73% 29.81 in 10.0 mi SSW 15.0 mph - N/A   Scattered Clouds
11:51 AM 70.0 °F 59.0 °F 68% 29.80 in 10.0 mi South 16.1 mph - N/A   Partly Cloudy
12:51 PM 70.0 °F 59.0 °F 68% 29.79 in 10.0 mi SSW 15.0 mph - N/A   Scattered Clouds
1:51 PM 70.0 °F 59.0 °F 68% 29.78 in 10.0 mi SSW 13.8 mph - N/A   Scattered Clouds
2:12 PM 70.0 °F 59.0 °F 68% 29.76 in 10.0 mi South 16.1 mph - N/A   Mostly Cloudy
2:51 PM 69.1 °F 59.0 °F 70% 29.76 in 10.0 mi South 10.4 mph - N/A   Mostly Cloudy
3:51 PM 68.0 °F 57.9 °F 70% 29.77 in 10.0 mi South 11.5 mph - N/A   Mostly Cloudy
4:51 PM 68.0 °F 57.9 °F 70% 29.75 in 10.0 mi South 11.5 mph - N/A   Mostly Cloudy
5:51 PM 66.9 °F 57.9 °F 73% 29.76 in 10.0 mi SSW 11.5 mph - N/A   Mostly Cloudy
6:51 PM 66.9 °F 57.9 °F 73% 29.77 in 10.0 mi South 11.5 mph - N/A   Mostly Cloudy
7:51 PM 66.0 °F 57.9 °F 75% 29.78 in 10.0 mi South 10.4 mph - N/A   Mostly Cloudy
8:51 PM 66.0 °F 57.9 °F 75% 29.78 in 10.0 mi South 11.5 mph - N/A   Mostly Cloudy
9:51 PM 66.0 °F 57.9 °F 75% 29.79 in 10.0 mi South 10.4 mph - N/A   Mostly Cloudy
10:51 PM 66.9 °F 57.9 °F 73% 29.81 in 10.0 mi South 9.2 mph - N/A   Overcast
11:51 PM 66.9 °F 57.0 °F 70% 29.81 in 10.0 mi South 12.7 mph - N/A   Overcast